EHI
36 45 45 28 17 21 33 48 59 62 59 51 39 29 20 13 8 5 4 2 1 0 0 0 0 0 0 0 0 1 0 0 0 0 0 0 0 0 0 0 0 0 0
40 47 45 30 21 25 38 52 60 62 60 52 43 34 24 15 10 6 4 2 1 0 0 0 0 0 0 0 0 1 0 0 0 0 0 0 0 0 0 0 0 0 0
42 44 39 30 25 29 42 53 58 58 57 51 44 36 26 16 9 6 4 3 1 0 0 0 0 0 0 0 0 0 0 0 0 0 0 0 0 0 0 0 0 0 0
32 33 33 31 27 29 39 48 51 50 47 43 38 31 21 12 7 5 4 2 1 0 0 0 0 0 0 0 0 0 0 0 0 0 0 0 0 0 0 0 0 0 0
16 22 31 33 28 27 32 39 42 40 37 33 29 21 13 7 5 4 3 1 0 0 0 0 0 0 0 0 0 0 0 0 0 0 0 0 0 0 0 0 0 0 0
9 17 31 34 28 25 26 30 33 33 29 25 20 13 8 5 3 3 2 1 0 0 0 0 0 0 0 0 0 0 0 0 0 0 0 0 0 0 0 0 0 0 0
9 18 32 36 30 26 25 26 29 28 24 20 15 10 6 4 3 3 2 1 0 0 0 0 0 0 0 0 0 0 0 0 1 0 0 0 0 0 0 0 0 0 0
7 16 31 34 28 25 23 24 25 24 22 19 13 7 5 4 3 3 2 1 0 0 0 0 0 0 0 0 0 0 0 0 0 0 0 0 0 0 0 0 0 0 0
6 13 22 25 20 17 17 18 20 20 19 16 10 5 2 2 1 1 2 2 1 0 0 0 0 0 0 0 0 0 0 0 0 0 0 0 0 0 0 0 0 0 0
10 11 15 17 15 11 11 15 18 17 14 10 6 4 2 1 0 1 2 3 2 0 0 0 0 0 0 0 0 0 0 0 0 0 0 0 0 0 0 0 0 0 0
17 15 15 16 16 11 11 16 17 15 11 8 6 7 6 4 2 3 5 6 4 1 0 0 1 2 1 0 0 0 0 0 0 0 1 1 1 0 0 0 0 0 0
26 21 18 17 16 13 13 16 15 13 12 9 8 11 12 9 6 8 11 10 5 2 1 1 3 4 4 3 1 0 0 0 0 0 2 4 2 0 0 0 0 0 0
31 26 21 19 17 16 16 16 16 15 16 13 10 12 15 14 12 14 16 15 11 8 6 7 8 8 7 6 2 0 0 0 0 0 3 6 4 0 0 0 0 0 0
31 26 21 21 24 24 21 19 19 20 20 17 15 15 15 16 16 20 22 21 17 15 13 14 14 12 10 7 3 1 1 1 1 1 4 7 5 1 1 0 0 0 0
33 27 23 26 30 30 28 24 22 22 20 19 18 17 15 15 17 22 27 25 19 16 16 17 16 15 14 10 5 2 2 1 1 2 4 7 5 2 1 1 0 0 0
33 28 26 29 30 29 27 23 19 17 17 16 15 15 13 13 15 18 21 21 18 15 16 16 14 13 15 13 8 4 2 2 3 3 4 5 4 3 2 1 2 1 0
29 26 22 22 22 21 19 15 12 11 11 10 9 9 9 10 11 10 11 13 14 14 15 14 12 11 12 14 13 9 6 5 6 4 3 4 3 3 3 3 4 3 2
27 24 18 14 14 15 13 11 9 8 7 4 3 3 4 5 5 4 5 8 10 9 9 11 11 10 10 11 12 12 9 7 7 6 4 4 5 4 5 6 6 5 4
26 24 19 14 12 12 13 12 9 7 5 2 1 1 3 3 3 3 4 6 6 5 5 6 8 8 7 6 7 8 7 6 7 6 4 5 7 6 7 8 8 7 6
20 20 18 14 11 9 9 9 7 4 3 1 1 1 2 2 2 2 3 3 3 4 3 3 4 5 4 3 3 4 3 4 5 5 4 5 7 7 7 9 11 10 8
16 14 13 11 8 5 4 4 4 3 1 0 0 1 1 1 1 1 1 1 2 3 3 1 1 2 2 2 2 1 1 1 2 3 3 4 5 7 8 10 15 16 14
12 11 10 9 6 2 1 2 3 2 1 0 0 0 0 0 0 0 0 1 2 2 2 1 0 0 0 1 1 1 0 0 1 1 2 3 4 7 8 10 14 17 16
7 7 7 7 5 3 1 1 1 1 1 0 0 0 0 0 0 0 0 0 1 1 1 0 1 1 0 0 0 0 0 0 1 2 2 2 3 6 7 9 10 13 15
3 3 3 3 3 2 0 0 1 1 0 0 0 0 0 0 0 0 0 0 1 1 1 1 2 2 1 0 0 0 0 0 1 1 1 1 2 3 5 7 8 10 13
2 2 2 2 2 1 0 1 2 1 0 0 0 0 0 0 0 0 0 1 2 3 3 3 3 2 1 0 0 0 0 0 0 0 0 1 2 2 4 6 7 9 10
1 2 2 3 3 1 0 1 3 2 1 1 1 0 0 0 0 0 0 1 4 5 4 3 3 2 1 1 0 0 0 0 0 0 0 1 2 3 4 6 6 6 7
Wind_Speed
13 17 19 15 13 13 13 14 14 14 15 15 14 14 13 13 12 11 10 9 8 7 7 7 7 7 8 8 8 10 10 10 10 11 12 12 12 12 13 13 13 14 16
16 18 19 15 14 13 13 13 13 13 14 14 14 13 13 12 11 10 9 8 8 7 7 6 7 7 8 8 9 10 10 10 10 11 12 12 12 11 11 9 8 13 15
17 18 18 15 14 13 13 13 13 13 13 13 13 12 12 11 11 10 9 8 7 7 6 6 6 7 8 9 10 10 10 10 10 10 10 10 12 11 10 10 15 15 14
17 17 16 17 15 14 13 13 12 12 12 12 12 11 11 10 10 9 9 8 7 7 6 6 6 7 7 8 9 9 9 9 9 9 7 9 11 11 10 12 13 14 14
15 15 17 17 15 14 13 12 12 12 11 11 11 10 10 9 9 8 8 8 7 7 6 6 6 7 7 8 8 8 9 9 8 8 7 7 9 11 11 12 13 13 13
15 15 17 16 15 14 13 12 12 11 11 10 10 9 9 9 8 7 7 7 6 6 6 6 6 6 7 7 7 8 8 8 9 6 6 6 9 11 11 12 12 12 12
14 14 17 15 15 14 13 12 12 11 11 10 10 9 8 8 8 8 7 6 6 6 6 6 7 7 7 7 6 7 7 7 7 6 6 6 9 11 11 11 12 12 12
13 13 16 15 14 13 13 12 11 11 10 10 9 9 8 7 7 7 7 7 6 6 6 6 7 7 7 7 7 6 6 7 7 6 6 6 11 10 10 11 11 12 12
11 11 13 14 13 12 11 11 11 10 10 9 9 8 8 8 7 7 7 7 6 6 7 7 7 8 8 8 8 7 7 7 8 4 6 5 12 10 10 11 11 11 11
9 9 10 10 10 11 11 11 10 9 9 9 9 9 8 9 9 8 9 8 7 7 8 8 8 8 8 9 9 9 8 8 10 7 5 7 12 11 11 11 12 12 12
8 7 7 9 8 7 8 9 10 9 9 9 9 10 9 8 8 9 9 8 9 9 9 9 9 9 10 10 11 10 9 9 10 6 5 10 12 12 12 12 13 13 13
9 8 6 6 6 6 4 5 5 6 6 6 5 6 6 5 4 5 4 6 8 9 10 11 10 10 11 9 11 12 9 11 9 6 5 12 11 12 13 13 14 14 14
9 7 6 5 4 4 3 3 2 2 3 4 5 5 4 4 4 4 3 5 7 9 8 8 10 8 8 7 6 9 10 9 7 6 6 13 12 13 14 14 15 15 15
8 7 6 5 4 2 2 1 2 2 2 3 3 4 3 3 3 3 3 4 4 4 5 6 5 8 8 9 9 9 10 8 7 6 5 12 12 14 15 15 16 16 17
6 6 5 4 3 2 2 1 1 1 2 3 2 3 4 3 4 4 4 4 5 5 6 6 6 6 8 9 9 10 10 10 10 9 5 11 13 15 16 17 17 17 18
6 6 5 4 4 4 2 1 1 1 1 2 2 3 4 4 4 4 5 4 4 4 4 4 6 6 6 6 8 10 10 10 10 10 9 9 14 16 17 18 18 18 19
6 5 5 4 4 4 3 1 1 1 1 1 1 2 3 3 3 4 4 4 4 4 5 5 6 6 7 8 9 10 9 10 10 10 10 8 9 15 18 19 19 19 20
5 5 5 3 4 3 2 1 0 1 1 1 1 1 2 2 3 4 4 4 4 5 5 5 5 6 7 7 7 8 8 8 11 11 10 10 9 10 15 20 20 19 20
5 5 5 3 3 3 2 2 1 1 1 1 1 1 2 3 3 4 4 3 4 4 4 6 5 6 7 7 8 8 9 9 10 11 12 12 12 11 11 14 19 19 20
5 5 5 4 3 3 2 2 1 0 1 1 1 1 2 2 2 3 3 2 4 4 4 4 5 5 6 6 8 8 8 9 9 10 12 11 11 13 14 13 12 15 20
5 5 4 3 3 2 1 1 1 1 1 1 1 1 2 3 2 3 4 2 4 4 4 5 5 6 6 5 6 7 8 10 10 10 10 10 12 13 13 13 11 10 11
4 4 4 4 3 2 1 1 2 2 3 2 2 1 3 3 4 4 3 5 4 4 5 5 5 6 5 4 5 6 6 7 8 9 8 9 11 10 12 14 12 12 11
4 4 3 2 2 1 1 2 2 2 3 3 3 3 3 4 4 4 5 5 5 6 5 5 6 7 6 5 5 5 5 5 4 5 7 7 8 8 10 10 13 13 14
4 4 3 2 1 1 2 3 4 4 5 4 4 3 4 5 5 5 6 6 6 6 5 7 5 6 7 6 5 5 6 5 5 5 5 6 7 8 9 8 10 12 13
4 4 3 2 1 1 2 2 4 5 5 5 4 4 6 5 5 6 6 6 6 7 7 7 6 7 6 7 6 5 6 6 7 7 6 5 6 6 7 8 8 9 11
3 3 2 2 1 1 2 3 4 5 6 7 7 7 7 6 5 6 7 7 7 7 7 7 7 8 7 7 7 6 6 6 6 6 7 6 6 6 6 6 7 8 8
Wind_Direction
151 143 144 152 151 149 149 149 149 151 152 153 152 151 151 150 149 147 144 140 134 127 118 110 107 114 115 114 116 116 114 115 117 116 116 115 116 118 123 131 138 116 118
146 142 145 152 152 150 147 147 146 147 150 152 152 151 151 152 152 151 149 146 142 135 123 113 109 111 113 113 116 119 119 121 122 122 125 123 120 121 128 133 110 114 126
143 142 150 152 152 150 147 146 146 146 148 150 150 151 153 154 155 156 154 151 147 140 131 124 119 117 117 120 123 126 126 126 126 136 160 139 123 126 126 114 110 125 127
144 146 153 150 153 151 149 148 148 148 148 149 150 153 156 158 159 161 160 157 153 148 142 137 131 127 125 127 131 133 133 131 135 171 171 128 130 128 132 126 128 132 131
146 147 142 153 155 154 152 150 150 150 150 151 153 156 159 162 165 166 164 163 161 158 153 149 143 137 135 136 137 138 136 136 156 208 121 127 125 133 139 136 137 136 135
151 150 141 156 156 156 155 154 154 153 154 156 158 161 164 167 171 171 170 170 170 167 163 160 155 149 147 147 147 147 145 150 197 157 137 145 131 143 149 147 145 143 141
153 147 144 157 157 158 159 160 160 160 161 162 165 168 172 176 181 181 180 181 182 179 175 170 165 162 161 160 160 160 158 181 227 140 156 145 126 145 158 157 153 151 150
153 150 141 155 159 161 163 165 166 167 168 170 173 177 182 187 193 191 191 190 192 190 188 184 179 176 176 175 176 178 180 217 211 169 172 150 127 158 167 164 161 159 157
154 148 149 160 163 166 169 172 172 172 174 178 183 187 191 197 203 208 207 202 202 202 199 195 195 193 191 189 190 194 201 231 251 188 187 158 142 172 179 173 170 169 167
152 154 155 161 165 173 175 175 179 179 182 188 195 198 201 206 209 213 215 204 210 212 211 209 208 208 206 204 203 205 210 226 239 205 198 149 152 183 190 185 181 179 177
153 156 160 159 167 181 181 166 181 185 192 199 202 205 210 220 216 208 217 193 211 219 219 218 218 216 213 210 213 212 215 230 227 225 206 137 165 191 198 195 191 189 186
158 160 162 158 171 180 182 161 195 196 188 210 210 209 218 230 243 244 162 198 224 229 227 224 225 224 225 217 204 208 224 228 238 223 191 146 179 201 205 202 198 197 195
158 159 158 156 178 184 176 175 194 210 195 214 222 219 223 234 236 244 230 208 223 229 231 220 220 226 227 232 224 210 226 232 231 233 195 160 187 207 213 209 204 202 201
156 156 150 153 166 187 194 177 203 222 230 236 224 235 224 229 239 244 243 243 239 242 240 240 234 229 236 235 233 234 230 232 236 235 207 170 192 210 217 216 212 207 204
143 147 140 139 137 148 163 247 228 248 261 249 253 254 258 247 241 242 245 245 244 243 242 243 246 242 239 240 239 236 238 236 240 237 222 186 199 214 220 220 217 213 210
141 135 134 138 140 143 157 186 254 250 246 274 267 268 260 253 252 249 242 243 249 252 259 260 258 252 248 241 239 239 241 242 240 241 243 215 206 215 221 222 220 217 214
136 129 139 150 156 153 156 186 232 267 284 302 318 287 267 262 265 260 255 251 253 258 256 255 258 257 250 245 242 240 239 240 239 238 241 244 227 216 220 222 221 219 216
133 140 143 150 148 148 145 159 261 318 324 323 312 289 285 281 263 255 256 255 256 254 255 258 257 261 259 258 252 248 245 242 242 240 238 234 238 235 218 218 220 219 218
119 128 130 136 137 131 146 165 172 188 299 312 326 325 336 309 288 268 269 273 257 253 256 265 259 262 264 262 258 248 244 242 242 242 239 236 232 235 236 215 214 218 219
112 114 122 135 123 141 155 164 173 170 264 309 330 357 324 312 305 294 270 278 274 264 259 260 268 263 270 270 270 265 252 246 240 238 238 236 231 230 231 232 216 216 216
118 125 125 120 127 160 177 251 272 278 291 294 294 335 293 301 303 288 298 290 278 272 275 272 268 261 259 264 266 263 252 243 240 238 236 237 233 231 231 229 227 226 213
133 138 146 151 145 183 128 302 311 317 293 294 299 292 282 281 282 276 295 289 285 285 269 273 267 274 271 256 266 275 267 246 227 234 233 233 237 233 232 228 225 224 228
151 154 143 139 163 203 256 259 271 261 266 264 276 271 283 282 273 287 289 289 294 280 280 281 274 266 272 265 252 267 274 272 286 239 235 238 237 234 231 228 225 224 223
160 148 139 151 172 218 252 279 290 293 295 305 296 298 292 277 277 275 277 278 280 283 286 274 269 272 266 264 245 242 261 289 280 271 240 232 231 235 239 232 226 221 219
160 156 151 153 164 212 274 276 277 285 293 293 294 288 285 276 271 273 274 276 274 275 283 288 287 273 268 269 268 255 249 247 249 262 267 260 247 240 235 235 232 224 219
164 171 166 159 173 231 279 294 293 299 300 302 297 296 286 281 273 272 277 280 275 278 277 274 276 266 267 273 274 270 262 258 254 255 261 261 261 254 247 247 239 229 220